Hatteras, NC

1:49 AM EDT on October 23, 2019 (GMT -0400)
Mitchell

Weather History for KHSE - August, 2019

Change the Weather History Date:

Saturday, August 3, 2019

  Actual Average Record
Temperature  
Mean Temperature 78 °F 79 °F  
Max Temperature 82 °F 85 °F 92 °F (1975)
Min Temperature 73 °F 73 °F 60 °F (1959)
Degree Days  
Heating Degree Days 0 0  
Month to date heating degree days 0 0  
Since 1 June heating degree days 0 3  
Since 1 July heating degree days 0 0  
Cooling Degree Days 12 14  
Month to date cooling degree days 46 42  
Year to date cooling degree days 1346 930  
Since 1 June cooling degree days 964 787  
Growing Degree Days 28 (Base 50)    
Moisture  
Dew Point 73 °F    
Average Humidity 90    
Maximum Humidity 100    
Minimum Humidity 77    
Precipitation  
Precipitation 1.08 in 0.20 in 6.74 in (1986)
Month to date precipitation 1.09 0.59  
Year to date precipitation 32.81 30.85  
Snow  
Snow 0.00 in - - ()
Month to date snowfall 0.0  
Since 1 July snowfall 0.0  
Snow Depth 0.00 in    
Sea Level Pressure  
Sea Level Pressure 30.00 in    
Wind  
Wind Speed 4 mph ()    
Max Wind Speed 18 mph    
Max Gust Speed 25 mph    
Visibility 7.6 miles    
Events Rain    
T = Trace of Precipitation, MM = Missing Value Source: Averaged Metar Reports

Daily Weather History Graph

Daily Weather History Graph

Search for Another Location

Airport or City:

Astronomy

Aug. 03, 2019 Rise Set
Actual Time 6:12 AM EDT 8:04 PM EDT
Civil Twilight 5:44 AM EDT 8:31 PM EDT
Nautical Twilight 5:11 AM EDT 9:05 PM EDT
Astronomical Twilight 4:35 AM EDT 9:41 PM EDT
Moon 8:58 AM EDT (8/3) 10:14 PM EDT (8/3)
Length of Visible Light 14h 46m
Length of Day
13h 51m
Waxing Crescent, 10% of the Moon is Illuminated
Aug 3
Waxing Crescent
Aug 7
First Quarter
Aug 15
Full
Aug 23
Last Quarter
Aug 30
New

Hourly Weather History & Observations

Time (EDT) Temp. Heat Index Dew Point Humidity Pressure Visibility Wind Dir Wind Speed Gust Speed Precip Events Conditions
12:51 AM 79.0 °F - 73.0 °F 82% 30.05 in 5.0 mi SE 10.4 mph - 0.00 in Rain Rain
1:34 AM 77.0 °F - 73.9 °F 90% 30.04 in 1.8 mi SSW 11.5 mph 25.3 mph 0.05 in Rain Heavy Rain
1:42 AM 73.9 °F - 72.0 °F 93% 30.04 in 2.0 mi SSW 12.7 mph 25.3 mph 0.13 in Rain Heavy Rain
1:51 AM 75.0 °F - 72.0 °F 90% 30.04 in 6.0 mi SSW 8.1 mph - 0.15 in Rain Light Rain
3:51 AM 75.0 °F - 73.9 °F 96% 30.02 in 8.0 mi South 4.6 mph - 0.01 in Rain Rain
4:15 AM 75.0 °F - 73.0 °F 94% 30.01 in 10.0 mi East 5.8 mph - 0.04 in Rain Light Rain
4:31 AM 75.0 °F - 73.9 °F 96% 30.02 in 1.8 mi SSE 9.2 mph - 0.04 in Rain Rain
4:33 AM 75.0 °F - 73.9 °F 96% 30.02 in 0.8 mi Variable 3.5 mph - 0.07 in Rain Heavy Rain
4:45 AM 73.4 °F - 71.6 °F 94% 30.01 in 2.0 mi NNE 4.6 mph - 0.52 in Rain Light Rain
4:48 AM 73.4 °F - 71.6 °F 94% 30.01 in 6.0 mi NNE 3.5 mph - 0.52 in Rain Light Rain
4:51 AM 73.9 °F - 72.0 °F 93% 30.01 in 9.0 mi Calm Calm - 0.52 in Rain Light Rain
4:58 AM 73.0 °F - 72.0 °F 96% 30.01 in 10.0 mi Calm Calm - 0.00 in Rain Light Rain
5:11 AM 73.9 °F - 73.0 °F 97% 30.01 in 10.0 mi NE 3.5 mph - 0.00 in Rain Light Rain
5:24 AM 73.9 °F - 73.0 °F 97% 30.01 in 10.0 mi NNE 3.5 mph - 0.00 in Rain Light Rain
5:51 AM 73.9 °F - 73.0 °F 97% 30.01 in 5.0 mi Calm Calm - 0.05 in Rain Rain
6:47 AM 73.4 °F - 73.4 °F 100% 30.01 in 2.5 mi Calm Calm - 0.18 in Rain Heavy Rain
6:51 AM 73.9 °F - 73.9 °F 100% 30.01 in 3.0 mi Calm Calm - 0.19 in Rain Rain
7:20 AM 73.9 °F - 73.0 °F 97% 30.02 in 2.5 mi Calm Calm - 0.06 in Rain Rain
7:27 AM 73.9 °F - 73.0 °F 97% 30.02 in 2.5 mi East 3.5 mph - 0.08 in Rain Rain
7:31 AM 73.0 °F - 73.0 °F 100% 30.02 in 4.0 mi Calm Calm - 0.09 in Rain Rain
7:40 AM 73.9 °F - 73.0 °F 97% 30.02 in 6.0 mi Calm Calm - 0.10 in Rain Rain
7:51 AM 73.9 °F - 73.0 °F 97% 30.01 in 7.0 mi Calm Calm - 0.11 in Rain Light Rain
8:15 AM 75.0 °F - 73.9 °F 96% 30.01 in 10.0 mi Calm Calm - 0.01 in   Scattered Clouds
8:51 AM 75.0 °F - 73.9 °F 96% 30.01 in 10.0 mi Calm Calm - 0.01 in   Partly Cloudy
9:51 AM 77.0 °F - 73.9 °F 90% 30.01 in 10.0 mi South 4.6 mph - N/A   Clear
10:51 AM 78.1 °F - 73.0 °F 84% 30.02 in 10.0 mi SSE 3.5 mph - N/A   Clear
11:51 AM 79.0 °F - 73.0 °F 82% 30.02 in 10.0 mi Calm Calm - N/A   Mostly Cloudy
12:51 PM 78.1 °F - 73.9 °F 87% 30.02 in 10.0 mi SW 5.8 mph - 0.00 in Rain Light Rain
1:51 PM 79.0 °F - 75.0 °F 88% 29.99 in 10.0 mi Variable 3.5 mph - 0.01 in   Scattered Clouds
2:51 PM 80.1 °F 84.2 °F 73.0 °F 79% 29.98 in 10.0 mi Calm Calm - N/A   Clear
3:51 PM 81.0 °F 86.2 °F 73.9 °F 79% 29.96 in 10.0 mi Calm Calm - N/A   Scattered Clouds
4:04 PM 81.0 °F 85.8 °F 73.0 °F 77% 29.96 in 10.0 mi Calm Calm - N/A   Mostly Cloudy
4:51 PM 80.1 °F 84.5 °F 73.9 °F 81% 29.95 in 10.0 mi Calm Calm - N/A   Mostly Cloudy
4:59 PM 80.1 °F 84.5 °F 73.9 °F 81% 29.94 in 10.0 mi ENE 3.5 mph - N/A   Scattered Clouds
5:15 PM 80.1 °F 84.5 °F 73.9 °F 81% 29.95 in 10.0 mi Variable 3.5 mph - N/A   Mostly Cloudy
5:51 PM 80.1 °F 84.5 °F 73.9 °F 81% 29.95 in 10.0 mi South 4.6 mph - N/A   Overcast
6:08 PM 80.1 °F 84.5 °F 73.9 °F 81% 29.94 in 10.0 mi SSE 4.6 mph - N/A   Mostly Cloudy
6:51 PM 81.0 °F 86.7 °F 75.0 °F 82% 29.94 in 10.0 mi SE 5.8 mph - N/A   Scattered Clouds
7:51 PM 79.0 °F - 73.0 °F 82% 29.96 in 10.0 mi SSE 3.5 mph - N/A   Scattered Clouds
8:51 PM 78.1 °F - 73.0 °F 84% 29.96 in 10.0 mi South 5.8 mph - N/A   Clear
9:51 PM 77.0 °F - 73.9 °F 90% 29.97 in 10.0 mi SW 6.9 mph - N/A   Clear
10:51 PM 75.9 °F - 73.0 °F 91% 29.97 in 10.0 mi WNW 3.5 mph - N/A   Clear
11:51 PM 75.0 °F - 73.0 °F 94% 29.95 in 10.0 mi West 3.5 mph - N/A   Clear